Meath Environmental Platform

Observations for Trim Market St

Time AQI Temp °C Hum % Pres Pa CO μg/m³ H₂S μg/m³ NO μg/m³ NO₂ μg/m³ O₃ μg/m³ SO₂ μg/m³ PM1 μg/m³ PM2.5 μg/m³ PM10 μg/m³
Tuesday 25 August 2026
01:05 3 15.9 74 45,546 0.34 0 1.21 19.4 46.99 0 4.28 5.77 9.95
01:04 3 15.9 74 45,588 0.34 0 1.21 18.34 50.27 0 3.56 5.29 9.35
01:03 3 15.9 74 45,622 0.34 0 1.22 21.9 43.69 0 4.99 7.69 11.77
01:02 3 15.9 74 45,621 0.33 0 1.29 15.39 61.1 0 5.7 6.26 9.95
00:56 3 15.9 73 45,899 0.32 0 1.11 21.39 52.75 0 4.99 6.27 11.17
00:53 3 15.9 73 46,262 0.32 0 1.36 20.27 55.85 0 4.28 5.79 9.96
00:51 3 15.9 73 46,731 0.31 0 1.39 19.02 54.6 0 2.85 5.32 8.75
00:50 3 15.9 73 46,947 0.32 0 1.33 19.98 52.46 0 4.99 7.25 12.4
00:45 3 15.9 73 48,398 0.33 0 1.22 21.87 58.23 0 3.56 5.82 11.19
00:44 3 15.9 73 48,798 0.31 0 1.25 20.1 51.35 0 3.56 5.34 8.75
00:43 3 15.9 72 49,163 0.32 0 1.27 23.3 53.83 0 4.99 7.28 11.2
00:42 3 15.9 72 49,452 0.32 0 1.31 17.61 51.07 0 5.7 6.31 9.37
00:41 3 15.9 72 49,703 0.31 0 1.14 23.89 53.99 0 5.7 6.8 11.82
00:39 3 15.9 72 50,230 0.32 0 1.3 21.32 53.13 0 4.28 6.33 10.6
00:38 3 15.9 72 50,492 0.32 0 1.22 20.89 54.09 0 5.7 6.81 9.98
00:36 3 15.9 72 50,981 0.41 0 1.3 25.49 54.98 0 4.99 6.34 9.37
00:35 3 15.9 72 51,270 0.55 0 1.31 26.15 47.24 0 6.41 8.75 13.06
00:32 3 15.9 72 51,783 0.31 0 1.32 12.03 68.69 0 4.99 6.83 11.22
00:27 3 15.9 72 52,214 0.32 0 1.42 19.85 54.06 0 4.28 6.84 10.61
00:23 3 15.9 72 52,707 0.33 0 1.35 17.96 57.76 0 4.99 7.34 11.86